contact:dominique.lefevre@mio.osupytheas.fr, maurice.libes@osupytheas.fr, didier.mallarino@osupytheas.fr
Project:EMSO http://www.emso-fr.org/EMSO-France
Depth: 2436.0 m
Title:EMSO Ligure Ouest : Data MII capteur MICROCAT
DateTime_Computer,Latitude,Longitude,Temperature,Conductivity,Pressure,DateTime_Instrument
DateTime_Computer,Latitude,Longitude,degC,S m-1,dbar,DateTime_Instrument
2020-05-27T00:00:09Z,42.805,6.029,13.3048,4.60011,2470.1,2020-5-27T02:00:51Z
2020-05-27T00:03:12Z,42.805,6.029,13.3047,4.60017,2470.124,2020-5-27T02:03:55Z
2020-05-27T00:06:15Z,42.805,6.029,13.3041,4.60027,2470.11,2020-5-27T02:06:58Z
2020-05-27T00:09:18Z,42.805,6.029,13.3054,4.60024,2470.124,2020-5-27T02:10:01Z
2020-05-27T00:12:21Z,42.805,6.029,13.3048,4.60026,2470.11,2020-5-27T02:13:04Z
2020-05-27T00:15:25Z,42.805,6.029,13.3058,4.60036,2470.124,2020-5-27T02:16:08Z
2020-05-27T00:18:28Z,42.805,6.029,13.3056,4.60019,2470.124,2020-5-27T02:19:11Z
2020-05-27T00:21:31Z,42.805,6.029,13.3047,4.60021,2470.124,2020-5-27T02:22:14Z
2020-05-27T00:24:34Z,42.805,6.029,13.3060,4.60020,2470.11,2020-5-27T02:25:17Z
2020-05-27T00:27:38Z,42.805,6.029,13.3053,4.60016,2470.063,2020-5-27T02:28:20Z
2020-05-27T00:30:41Z,42.805,6.029,13.3049,4.60013,2470.1,2020-5-27T02:31:24Z
2020-05-27T00:33:44Z,42.805,6.029,13.3048,4.60005,2470.124,2020-5-27T02:34:27Z
2020-05-27T00:36:47Z,42.805,6.029,13.3057,4.60024,2470.087,2020-5-27T02:37:30Z
2020-05-27T00:39:50Z,42.805,6.029,13.3044,4.60023,2470.147,2020-5-27T02:40:33Z
2020-05-27T00:42:54Z,42.805,6.029,13.3042,4.60041,2470.087,2020-5-27T02:43:37Z
2020-05-27T00:45:57Z,42.805,6.029,13.3024,4.60047,2470.124,2020-5-27T02:46:40Z
2020-05-27T00:49:00Z,42.805,6.029,13.3023,4.60027,2470.11,2020-5-27T02:49:43Z
2020-05-27T00:52:03Z,42.805,6.029,13.3009,4.60033,2470.087,2020-5-27T02:52:46Z
2020-05-27T00:55:07Z,42.805,6.029,13.3030,4.60003,2470.1,2020-5-27T02:55:50Z
2020-05-27T00:58:10Z,42.805,6.029,13.3045,4.59996,2470.1,2020-5-27T02:58:53Z
2020-05-27T01:01:13Z,42.805,6.029,13.3059,4.59995,2470.124,2020-5-27T03:01:56Z
2020-05-27T01:04:16Z,42.805,6.029,13.3063,4.59988,2470.124,2020-5-27T03:04:59Z
2020-05-27T01:07:20Z,42.805,6.029,13.3051,4.59993,2470.1,2020-5-27T03:08:02Z
2020-05-27T01:10:23Z,42.805,6.029,13.3036,4.59986,2470.063,2020-5-27T03:11:06Z
2020-05-27T01:13:26Z,42.805,6.029,13.3029,4.59991,2470.1,2020-5-27T03:14:09Z
2020-05-27T01:16:29Z,42.805,6.029,13.3029,4.60003,2470.087,2020-5-27T03:17:12Z
2020-05-27T01:19:33Z,42.805,6.029,13.3036,4.59994,2470.053,2020-5-27T03:20:15Z
2020-05-27T01:22:36Z,42.805,6.029,13.3069,4.59990,2470.1,2020-5-27T03:23:19Z
2020-05-27T01:25:39Z,42.805,6.029,13.3078,4.59993,2470.077,2020-5-27T03:26:22Z
2020-05-27T01:28:42Z,42.805,6.029,13.3062,4.59995,2470.077,2020-5-27T03:29:25Z
2020-05-27T01:31:46Z,42.805,6.029,13.3000,4.60049,2470.077,2020-5-27T03:32:28Z
2020-05-27T01:34:49Z,42.805,6.029,13.3023,4.59989,2470.1,2020-5-27T03:35:32Z
2020-05-27T01:37:52Z,42.805,6.029,13.3024,4.60034,2470.063,2020-5-27T03:38:35Z
2020-05-27T01:40:55Z,42.805,6.029,13.3034,4.60081,2470.077,2020-5-27T03:41:38Z
2020-05-27T01:43:59Z,42.805,6.029,13.3037,4.60094,2470.077,2020-5-27T03:44:41Z
2020-05-27T01:47:02Z,42.805,6.029,13.3050,4.60026,2470.063,2020-5-27T03:47:45Z
2020-05-27T01:50:05Z,42.805,6.029,13.3045,4.60062,2470.1,2020-5-27T03:50:48Z
2020-05-27T01:53:08Z,42.805,6.029,13.3056,4.60039,2470.1,2020-5-27T03:53:51Z
2020-05-27T01:56:11Z,42.805,6.029,13.3048,4.60028,2470.063,2020-5-27T03:56:54Z
2020-05-27T01:59:15Z,42.805,6.029,13.3019,4.60070,2470.053,2020-5-27T03:59:58Z
2020-05-27T02:02:18Z,42.805,6.029,13.2984,4.60044,2470.077,2020-5-27T04:03:01Z
2020-05-27T02:05:21Z,42.805,6.029,13.3004,4.60037,2470.063,2020-5-27T04:06:04Z
2020-05-27T02:08:24Z,42.805,6.029,13.2991,4.60014,2470.077,2020-5-27T04:09:07Z
2020-05-27T02:11:28Z,42.805,6.029,13.2997,4.60055,2470.063,2020-5-27T04:12:10Z
2020-05-27T02:14:31Z,42.805,6.029,13.3076,4.60047,2470.04,2020-5-27T04:15:14Z
2020-05-27T02:17:34Z,42.805,6.029,13.2997,4.60090,2470.053,2020-5-27T04:18:17Z
2020-05-27T02:20:37Z,42.805,6.029,13.2998,4.60067,2470.017,2020-5-27T04:21:20Z
2020-05-27T02:23:40Z,42.805,6.029,13.2992,4.60069,2470.017,2020-5-27T04:24:23Z
2020-05-27T02:26:44Z,42.805,6.029,13.3000,4.60075,2470.04,2020-5-27T04:27:27Z
2020-05-27T02:29:47Z,42.805,6.029,13.3012,4.60036,2470.053,2020-5-27T04:30:30Z
2020-05-27T02:32:50Z,42.805,6.029,13.2994,4.60067,2470.063,2020-5-27T04:33:33Z
2020-05-27T02:35:53Z,42.805,6.029,13.2996,4.60104,2470.077,2020-5-27T04:36:36Z
2020-05-27T02:38:57Z,42.805,6.029,13.3011,4.60021,2470.04,2020-5-27T04:39:40Z
2020-05-27T02:42:00Z,42.805,6.029,13.2984,4.60057,2470.04,2020-5-27T04:42:43Z
2020-05-27T02:45:03Z,42.805,6.029,13.3013,4.60077,2470.04,2020-5-27T04:45:46Z
2020-05-27T02:48:06Z,42.805,6.029,13.2999,4.60087,2469.993,2020-5-27T04:48:49Z
2020-05-27T02:51:10Z,42.805,6.029,13.2997,4.60074,2470.007,2020-5-27T04:51:52Z
2020-05-27T02:54:13Z,42.805,6.029,13.2995,4.60079,2470.017,2020-5-27T04:54:56Z
2020-05-27T02:57:16Z,42.805,6.029,13.2993,4.60091,2470.03,2020-5-27T04:57:59Z
2020-05-27T03:00:19Z,42.805,6.029,13.3002,4.60084,2470.017,2020-5-27T05:01:02Z
2020-05-27T03:03:22Z,42.805,6.029,13.3006,4.60062,2469.993,2020-5-27T05:04:05Z
2020-05-27T03:06:26Z,42.805,6.029,13.3001,4.60041,2470.04,2020-5-27T05:07:09Z
2020-05-27T03:09:29Z,42.805,6.029,13.2987,4.60049,2470.017,2020-5-27T05:10:12Z
2020-05-27T03:12:32Z,42.805,6.029,13.2989,4.60069,2470.03,2020-5-27T05:13:15Z
2020-05-27T03:15:36Z,42.805,6.029,13.2993,4.60038,2470.03,2020-5-27T05:16:19Z
2020-05-27T03:18:39Z,42.805,6.029,13.2986,4.60029,2470.03,2020-5-27T05:19:22Z
2020-05-27T03:21:42Z,42.805,6.029,13.2990,4.60057,2469.984,2020-5-27T05:22:25Z
2020-05-27T03:24:46Z,42.805,6.029,13.2993,4.60067,2470.017,2020-5-27T05:25:28Z
2020-05-27T03:27:49Z,42.805,6.029,13.3001,4.60102,2469.984,2020-5-27T05:28:32Z
2020-05-27T03:30:52Z,42.805,6.029,13.3016,4.60104,2469.97,2020-5-27T05:31:35Z
2020-05-27T03:33:55Z,42.805,6.029,13.3017,4.60093,2470.007,2020-5-27T05:34:38Z
2020-05-27T03:36:59Z,42.805,6.029,13.3007,4.60069,2469.993,2020-5-27T05:37:41Z
2020-05-27T03:40:02Z,42.805,6.029,13.2989,4.60069,2470.007,2020-5-27T05:40:45Z
2020-05-27T03:43:05Z,42.805,6.029,13.2994,4.60107,2470.007,2020-5-27T05:43:48Z
2020-05-27T03:46:08Z,42.805,6.029,13.2994,4.60080,2470.007,2020-5-27T05:46:51Z
2020-05-27T03:49:12Z,42.805,6.029,13.3002,4.60087,2470.007,2020-5-27T05:49:54Z
2020-05-27T03:52:15Z,42.805,6.029,13.2986,4.60037,2470.007,2020-5-27T05:52:58Z
2020-05-27T03:55:18Z,42.805,6.029,13.2993,4.60061,2469.97,2020-5-27T05:56:01Z
2020-05-27T03:58:21Z,42.805,6.029,13.2977,4.60086,2470.007,2020-5-27T05:59:04Z
2020-05-27T04:01:25Z,42.805,6.029,13.2998,4.60044,2469.984,2020-5-27T06:02:07Z
2020-05-27T04:04:28Z,42.805,6.029,13.2996,4.60071,2469.984,2020-5-27T06:05:11Z
2020-05-27T04:07:31Z,42.805,6.029,13.2988,4.60065,2470.007,2020-5-27T06:08:14Z
2020-05-27T04:10:34Z,42.805,6.029,13.2983,4.60064,2470.007,2020-5-27T06:11:17Z
2020-05-27T04:13:37Z,42.805,6.029,13.2992,4.60073,2470.03,2020-5-27T06:14:20Z
2020-05-27T04:16:41Z,42.805,6.029,13.2991,4.60059,2470.007,2020-5-27T06:17:24Z
2020-05-27T04:19:44Z,42.805,6.029,13.3002,4.60059,2470.007,2020-5-27T06:20:27Z
2020-05-27T04:22:47Z,42.805,6.029,13.2988,4.60077,2470.03,2020-5-27T06:23:30Z
2020-05-27T04:25:51Z,42.805,6.029,13.2996,4.60046,2470.007,2020-5-27T06:26:34Z
2020-05-27T04:28:54Z,42.805,6.029,13.3014,4.60049,2469.97,2020-5-27T06:29:37Z
2020-05-27T04:31:57Z,42.805,6.029,13.2999,4.60045,2469.984,2020-5-27T06:32:40Z
2020-05-27T04:35:00Z,42.805,6.029,13.2987,4.60049,2469.97,2020-5-27T06:35:43Z
2020-05-27T04:38:04Z,42.805,6.029,13.2997,4.60019,2469.993,2020-5-27T06:38:47Z
2020-05-27T04:41:07Z,42.805,6.029,13.2996,4.60034,2469.97,2020-5-27T06:41:50Z
2020-05-27T04:44:10Z,42.805,6.029,13.3000,4.60046,2469.97,2020-5-27T06:44:53Z
2020-05-27T04:47:13Z,42.805,6.029,13.2997,4.60050,2470.007,2020-5-27T06:47:56Z
2020-05-27T04:50:17Z,42.805,6.029,13.3009,4.60058,2469.96,2020-5-27T06:50:59Z
2020-05-27T04:53:20Z,42.805,6.029,13.2989,4.60054,2469.993,2020-5-27T06:54:03Z
2020-05-27T04:56:23Z,42.805,6.029,13.2989,4.60072,2469.97,2020-5-27T06:57:06Z
2020-05-27T04:59:27Z,42.805,6.029,13.2997,4.60045,2469.956,2020-5-27T07:00:09Z
2020-05-27T05:02:30Z,42.805,6.029,13.2983,4.60020,2469.97,2020-5-27T07:03:13Z
2020-05-27T05:05:33Z,42.805,6.029,13.2992,4.60044,2469.984,2020-5-27T07:06:16Z
2020-05-27T05:08:36Z,42.805,6.029,13.2996,4.60053,2469.947,2020-5-27T07:09:19Z
2020-05-27T05:11:39Z,42.805,6.029,13.2983,4.60056,2470.007,2020-5-27T07:12:22Z
2020-05-27T05:14:43Z,42.805,6.029,13.2998,4.60046,2470.007,2020-5-27T07:15:26Z
2020-05-27T05:17:46Z,42.805,6.029,13.2996,4.60028,2469.984,2020-5-27T07:18:29Z
2020-05-27T05:20:49Z,42.805,6.029,13.3009,4.60026,2469.96,2020-5-27T07:21:32Z
2020-05-27T05:23:53Z,42.805,6.029,13.3006,4.60044,2470.007,2020-5-27T07:24:35Z
2020-05-27T05:26:56Z,42.805,6.029,13.3010,4.60021,2469.97,2020-5-27T07:27:39Z
2020-05-27T05:29:59Z,42.805,6.029,13.3026,4.60021,2469.96,2020-5-27T07:30:42Z
2020-05-27T05:33:02Z,42.805,6.029,13.3029,4.60044,2469.993,2020-5-27T07:33:45Z
2020-05-27T05:36:05Z,42.805,6.029,13.3030,4.60049,2470.017,2020-5-27T07:36:48Z
2020-05-27T05:39:09Z,42.805,6.029,13.3043,4.60051,2469.947,2020-5-27T07:39:52Z
2020-05-27T05:42:12Z,42.805,6.029,13.3044,4.60010,2469.984,2020-5-27T07:42:55Z
2020-05-27T05:45:15Z,42.805,6.029,13.3034,4.60044,2469.993,2020-5-27T07:45:58Z
2020-05-27T05:48:19Z,42.805,6.029,13.3039,4.60020,2469.984,2020-5-27T07:49:01Z
2020-05-27T05:51:22Z,42.805,6.029,13.3041,4.60031,2469.97,2020-5-27T07:52:05Z
2020-05-27T05:54:25Z,42.805,6.029,13.3056,4.60044,2469.984,2020-5-27T07:55:08Z
2020-05-27T05:57:28Z,42.805,6.029,13.3041,4.60037,2469.97,2020-5-27T07:58:11Z
2020-05-27T06:00:32Z,42.805,6.029,13.3007,4.60049,2470.007,2020-5-27T08:01:14Z
2020-05-27T06:03:35Z,42.805,6.029,13.3022,4.60045,2469.993,2020-5-27T08:04:18Z
2020-05-27T06:06:38Z,42.805,6.029,13.3039,4.60015,2470.017,2020-5-27T08:07:21Z
2020-05-27T06:09:42Z,42.805,6.029,13.3023,4.60049,2469.984,2020-5-27T08:10:24Z
2020-05-27T06:12:45Z,42.805,6.029,13.2993,4.60044,2469.993,2020-5-27T08:13:28Z
2020-05-27T06:15:48Z,42.805,6.029,13.3014,4.60023,2470.007,2020-5-27T08:16:31Z
2020-05-27T06:18:52Z,42.805,6.029,13.3021,4.60025,2469.993,2020-5-27T08:19:34Z
2020-05-27T06:21:55Z,42.805,6.029,13.3031,4.60046,2469.947,2020-5-27T08:22:38Z
2020-05-27T06:24:58Z,42.805,6.029,13.3046,4.60000,2470.007,2020-5-27T08:25:41Z
2020-05-27T06:28:01Z,42.805,6.029,13.3035,4.60000,2470.021,2020-5-27T08:28:44Z
2020-05-27T06:31:05Z,42.805,6.029,13.3034,4.60031,2469.984,2020-5-27T08:31:48Z
2020-05-27T06:34:08Z,42.805,6.029,13.3026,4.60036,2469.993,2020-5-27T08:34:51Z
2020-05-27T06:37:11Z,42.805,6.029,13.3031,4.60014,2470.007,2020-5-27T08:37:54Z
2020-05-27T06:40:15Z,42.805,6.029,13.3022,4.60011,2469.984,2020-5-27T08:40:58Z
2020-05-27T06:43:18Z,42.805,6.029,13.3008,4.59996,2470.007,2020-5-27T08:44:01Z
2020-05-27T06:46:21Z,42.805,6.029,13.3014,4.60030,2469.993,2020-5-27T08:47:04Z
2020-05-27T06:49:24Z,42.805,6.029,13.3013,4.60029,2470.017,2020-5-27T08:50:07Z
2020-05-27T06:52:28Z,42.805,6.029,13.3036,4.59993,2470.007,2020-5-27T08:53:11Z
2020-05-27T06:55:31Z,42.805,6.029,13.3055,4.60006,2470.017,2020-5-27T08:56:14Z
2020-05-27T06:58:34Z,42.805,6.029,13.3048,4.60003,2469.97,2020-5-27T08:59:17Z
2020-05-27T07:01:38Z,42.805,6.029,13.3041,4.60014,2470.017,2020-5-27T09:02:20Z
2020-05-27T07:04:41Z,42.805,6.029,13.3043,4.60009,2470.007,2020-5-27T09:05:24Z
2020-05-27T07:07:44Z,42.805,6.029,13.3035,4.60003,2470.03,2020-5-27T09:08:27Z
2020-05-27T07:10:47Z,42.805,6.029,13.3070,4.60005,2470.03,2020-5-27T09:11:30Z
2020-05-27T07:13:51Z,42.805,6.029,13.3058,4.60031,2470.03,2020-5-27T09:14:34Z
2020-05-27T07:16:54Z,42.805,6.029,13.3026,4.60011,2470.007,2020-5-27T09:17:37Z
2020-05-27T07:19:57Z,42.805,6.029,13.3041,4.60023,2470.03,2020-5-27T09:20:40Z
2020-05-27T07:23:01Z,42.805,6.029,13.3058,4.60040,2470.007,2020-5-27T09:23:43Z
2020-05-27T07:26:04Z,42.805,6.029,13.3034,4.60026,2470.017,2020-5-27T09:26:47Z
2020-05-27T07:29:07Z,42.805,6.029,13.3027,4.60051,2470.017,2020-5-27T09:29:50Z
2020-05-27T07:32:10Z,42.805,6.029,13.3041,4.60043,2470.017,2020-5-27T09:32:53Z
2020-05-27T07:35:14Z,42.805,6.029,13.3026,4.60060,2470.03,2020-5-27T09:35:57Z
2020-05-27T07:38:17Z,42.805,6.029,13.3042,4.60031,2470.017,2020-5-27T09:39:00Z
2020-05-27T07:41:20Z,42.805,6.029,13.3005,4.60029,2470.053,2020-5-27T09:42:03Z
2020-05-27T07:44:23Z,42.805,6.029,13.3024,4.60027,2469.993,2020-5-27T09:45:06Z
2020-05-27T07:47:27Z,42.805,6.029,13.3029,4.60014,2470.007,2020-5-27T09:48:10Z
2020-05-27T07:50:30Z,42.805,6.029,13.3014,4.60051,2470.03,2020-5-27T09:51:13Z
2020-05-27T07:53:33Z,42.805,6.029,13.3009,4.60031,2470.03,2020-5-27T09:54:16Z
2020-05-27T07:56:36Z,42.805,6.029,13.3010,4.60051,2470.03,2020-5-27T09:57:19Z
2020-05-27T07:59:40Z,42.805,6.029,13.2995,4.60033,2470.053,2020-5-27T10:00:23Z
2020-05-27T08:02:43Z,42.805,6.029,13.3004,4.60025,2470.017,2020-5-27T10:03:26Z
2020-05-27T08:05:46Z,42.805,6.029,13.3021,4.60008,2470.053,2020-5-27T10:06:29Z
2020-05-27T08:08:49Z,42.805,6.029,13.3027,4.60003,2470.053,2020-5-27T10:09:32Z
2020-05-27T08:11:53Z,42.805,6.029,13.3021,4.60012,2470.04,2020-5-27T10:12:36Z
2020-05-27T08:14:56Z,42.805,6.029,13.3026,4.60039,2470.04,2020-5-27T10:15:39Z
2020-05-27T08:17:59Z,42.805,6.029,13.3031,4.60007,2470.063,2020-5-27T10:18:42Z
2020-05-27T08:21:02Z,42.805,6.029,13.3036,4.60003,2470.03,2020-5-27T10:21:45Z
2020-05-27T08:24:06Z,42.805,6.029,13.3029,4.60017,2470.077,2020-5-27T10:24:49Z
2020-05-27T08:27:09Z,42.805,6.029,13.3010,4.60035,2470.04,2020-5-27T10:27:52Z
2020-05-27T08:30:12Z,42.805,6.029,13.3014,4.60009,2470.053,2020-5-27T10:30:55Z
2020-05-27T08:33:16Z,42.805,6.029,13.3009,4.60022,2470.077,2020-5-27T10:33:59Z
2020-05-27T08:36:19Z,42.805,6.029,13.2996,4.60039,2470.063,2020-5-27T10:37:02Z
2020-05-27T08:39:22Z,42.805,6.029,13.2998,4.60028,2470.053,2020-5-27T10:40:05Z
2020-05-27T08:42:25Z,42.805,6.029,13.3013,4.60008,2470.03,2020-5-27T10:43:08Z
2020-05-27T08:45:29Z,42.805,6.029,13.3014,4.60019,2470.04,2020-5-27T10:46:11Z
2020-05-27T08:48:32Z,42.805,6.029,13.3030,4.60033,2470.03,2020-5-27T10:49:15Z
2020-05-27T08:51:35Z,42.805,6.029,13.3011,4.60004,2470.053,2020-5-27T10:52:18Z
2020-05-27T08:54:38Z,42.805,6.029,13.3000,4.59999,2470.087,2020-5-27T10:55:21Z
2020-05-27T08:57:42Z,42.805,6.029,13.3021,4.60016,2470.053,2020-5-27T10:58:24Z
2020-05-27T09:00:45Z,42.805,6.029,13.3010,4.60019,2470.077,2020-5-27T11:01:28Z
2020-05-27T09:03:48Z,42.805,6.029,13.2997,4.60001,2470.063,2020-5-27T11:04:31Z
2020-05-27T09:06:51Z,42.805,6.029,13.3024,4.60016,2470.063,2020-5-27T11:07:34Z
2020-05-27T09:09:54Z,42.805,6.029,13.3002,4.60019,2470.077,2020-5-27T11:10:37Z
2020-05-27T09:12:58Z,42.805,6.029,13.3022,4.60014,2470.063,2020-5-27T11:13:41Z
2020-05-27T09:16:01Z,42.805,6.029,13.3026,4.60016,2470.053,2020-5-27T11:16:44Z
2020-05-27T09:19:04Z,42.805,6.029,13.3002,4.60006,2470.077,2020-5-27T11:19:47Z
2020-05-27T09:22:07Z,42.805,6.029,13.3051,4.60019,2470.063,2020-5-27T11:22:50Z
2020-05-27T09:25:11Z,42.805,6.029,13.3039,4.59991,2470.063,2020-5-27T11:25:54Z
2020-05-27T09:28:14Z,42.805,6.029,13.3031,4.60000,2470.03,2020-5-27T11:28:57Z
2020-05-27T09:31:17Z,42.805,6.029,13.3036,4.60006,2470.053,2020-5-27T11:32:00Z
2020-05-27T09:34:20Z,42.805,6.029,13.3049,4.60006,2470.077,2020-5-27T11:35:03Z
2020-05-27T09:37:24Z,42.805,6.029,13.3055,4.60010,2470.063,2020-5-27T11:38:07Z
2020-05-27T09:40:27Z,42.805,6.029,13.2991,4.60026,2470.087,2020-5-27T11:41:10Z
2020-05-27T09:43:30Z,42.805,6.029,13.3025,4.60016,2470.063,2020-5-27T11:44:13Z
2020-05-27T09:46:33Z,42.805,6.029,13.3008,4.60038,2470.053,2020-5-27T11:47:16Z
2020-05-27T09:49:37Z,42.805,6.029,13.3021,4.60021,2470.053,2020-5-27T11:50:20Z
2020-05-27T09:52:40Z,42.805,6.029,13.3026,4.60023,2470.053,2020-5-27T11:53:23Z
2020-05-27T09:55:43Z,42.805,6.029,13.3042,4.60031,2470.077,2020-5-27T11:56:26Z
2020-05-27T09:58:46Z,42.805,6.029,13.3030,4.60011,2470.04,2020-5-27T11:59:29Z
2020-05-27T10:01:50Z,42.805,6.029,13.3030,4.60021,2470.053,2020-5-27T12:02:33Z
2020-05-27T10:04:53Z,42.805,6.029,13.3024,4.60011,2470.063,2020-5-27T12:05:36Z
2020-05-27T10:07:56Z,42.805,6.029,13.3028,4.60013,2470.063,2020-5-27T12:08:39Z
2020-05-27T10:10:59Z,42.805,6.029,13.3029,4.60006,2470.1,2020-5-27T12:11:42Z
2020-05-27T10:14:03Z,42.805,6.029,13.3033,4.60024,2470.04,2020-5-27T12:14:46Z
2020-05-27T10:17:06Z,42.805,6.029,13.3049,4.60016,2470.1,2020-5-27T12:17:49Z
2020-05-27T10:20:09Z,42.805,6.029,13.3038,4.60014,2470.053,2020-5-27T12:20:52Z
2020-05-27T10:23:12Z,42.805,6.029,13.3034,4.60013,2470.053,2020-5-27T12:23:55Z
2020-05-27T10:26:16Z,42.805,6.029,13.3026,4.60010,2470.053,2020-5-27T12:26:59Z
2020-05-27T10:29:19Z,42.805,6.029,13.3029,4.60005,2470.077,2020-5-27T12:30:02Z
2020-05-27T10:32:22Z,42.805,6.029,13.3020,4.60031,2470.053,2020-5-27T12:33:05Z
2020-05-27T10:35:25Z,42.805,6.029,13.3024,4.60015,2470.017,2020-5-27T12:36:08Z
2020-05-27T10:38:29Z,42.805,6.029,13.3024,4.60014,2470.077,2020-5-27T12:39:12Z
2020-05-27T10:41:32Z,42.805,6.029,13.3036,4.59995,2470.04,2020-5-27T12:42:15Z
2020-05-27T10:44:35Z,42.805,6.029,13.3016,4.60041,2470.053,2020-5-27T12:45:18Z
2020-05-27T10:47:38Z,42.805,6.029,13.3024,4.60033,2470.04,2020-5-27T12:48:21Z
2020-05-27T10:50:42Z,42.805,6.029,13.3034,4.60020,2470.053,2020-5-27T12:51:25Z
2020-05-27T10:53:45Z,42.805,6.029,13.3041,4.60011,2470.053,2020-5-27T12:54:28Z
2020-05-27T10:56:48Z,42.805,6.029,13.3043,4.60002,2470.017,2020-5-27T12:57:31Z
2020-05-27T10:59:51Z,42.805,6.029,13.3037,4.60009,2470.03,2020-5-27T13:00:34Z
2020-05-27T11:02:55Z,42.805,6.029,13.3036,4.60014,2470.03,2020-5-27T13:03:37Z
2020-05-27T11:05:58Z,42.805,6.029,13.3036,4.60010,2470.017,2020-5-27T13:06:41Z
2020-05-27T11:09:01Z,42.805,6.029,13.3036,4.60022,2470.017,2020-5-27T13:09:44Z
2020-05-27T11:12:04Z,42.805,6.029,13.3043,4.60011,2470.03,2020-5-27T13:12:47Z
2020-05-27T11:15:08Z,42.805,6.029,13.3051,4.60012,2470.03,2020-5-27T13:15:50Z
2020-05-27T11:18:11Z,42.805,6.029,13.3041,4.60010,2470.007,2020-5-27T13:18:54Z
2020-05-27T11:21:14Z,42.805,6.029,13.3041,4.60031,2470.03,2020-5-27T13:21:57Z
2020-05-27T11:24:17Z,42.805,6.029,13.3057,4.60037,2470.03,2020-5-27T13:25:00Z
2020-05-27T11:27:21Z,42.805,6.029,13.3052,4.59992,2470.007,2020-5-27T13:28:04Z
2020-05-27T11:30:24Z,42.805,6.029,13.3050,4.59996,2470.03,2020-5-27T13:31:07Z
2020-05-27T11:33:27Z,42.805,6.029,13.3039,4.59998,2470.053,2020-5-27T13:34:10Z
2020-05-27T11:36:30Z,42.805,6.029,13.3019,4.59993,2470.007,2020-5-27T13:37:13Z
2020-05-27T11:39:34Z,42.805,6.029,13.2991,4.59999,2469.993,2020-5-27T13:40:17Z
2020-05-27T11:42:37Z,42.805,6.029,13.2993,4.60024,2470.03,2020-5-27T13:43:20Z
2020-05-27T11:45:40Z,42.805,6.029,13.2990,4.60013,2470.007,2020-5-27T13:46:23Z
2020-05-27T11:48:43Z,42.805,6.029,13.2998,4.60005,2470.007,2020-5-27T13:49:26Z
2020-05-27T11:51:47Z,42.805,6.029,13.3001,4.60014,2470.017,2020-5-27T13:52:30Z
2020-05-27T11:54:50Z,42.805,6.029,13.3019,4.59994,2469.993,2020-5-27T13:55:33Z
2020-05-27T11:57:53Z,42.805,6.029,13.3006,4.59986,2470.017,2020-5-27T13:58:36Z
2020-05-27T12:00:56Z,42.805,6.029,13.2990,4.60003,2470.017,2020-5-27T14:01:39Z
2020-05-27T12:04:00Z,42.805,6.029,13.2998,4.60004,2469.97,2020-5-27T14:04:42Z
2020-05-27T12:07:03Z,42.805,6.029,13.3008,4.59997,2469.97,2020-5-27T14:07:46Z
2020-05-27T12:10:06Z,42.805,6.029,13.2988,4.59987,2470.017,2020-5-27T14:10:49Z
2020-05-27T12:13:09Z,42.805,6.029,13.2987,4.60010,2469.97,2020-5-27T14:13:52Z
2020-05-27T12:16:13Z,42.805,6.029,13.2995,4.60010,2469.993,2020-5-27T14:16:56Z
2020-05-27T12:19:16Z,42.805,6.029,13.3004,4.60019,2470.007,2020-5-27T14:19:59Z
2020-05-27T12:22:19Z,42.805,6.029,13.3005,4.60001,2470.007,2020-5-27T14:23:02Z
2020-05-27T12:25:23Z,42.805,6.029,13.2998,4.60027,2470.007,2020-5-27T14:26:06Z
2020-05-27T12:28:26Z,42.805,6.029,13.3002,4.60044,2470.007,2020-5-27T14:29:09Z
2020-05-27T12:31:29Z,42.805,6.029,13.3005,4.60056,2469.97,2020-5-27T14:32:12Z
2020-05-27T12:34:33Z,42.805,6.029,13.3026,4.60054,2469.984,2020-5-27T14:35:16Z
2020-05-27T12:37:36Z,42.805,6.029,13.3034,4.60006,2470.007,2020-5-27T14:38:19Z
2020-05-27T12:40:39Z,42.805,6.029,13.3030,4.60003,2469.984,2020-5-27T14:41:22Z
2020-05-27T12:43:42Z,42.805,6.029,13.3032,4.59996,2469.993,2020-5-27T14:44:25Z
2020-05-27T12:46:46Z,42.805,6.029,13.3038,4.59998,2469.993,2020-5-27T14:47:29Z
2020-05-27T12:49:49Z,42.805,6.029,13.3017,4.60003,2470.007,2020-5-27T14:50:32Z
2020-05-27T12:52:52Z,42.805,6.029,13.3032,4.59998,2469.984,2020-5-27T14:53:35Z
2020-05-27T12:55:55Z,42.805,6.029,13.3031,4.60003,2469.96,2020-5-27T14:56:38Z
2020-05-27T12:58:59Z,42.805,6.029,13.3042,4.59991,2469.947,2020-5-27T14:59:42Z
2020-05-27T13:02:02Z,42.805,6.029,13.3026,4.60010,2469.984,2020-5-27T15:02:45Z
2020-05-27T13:05:05Z,42.805,6.029,13.3026,4.59993,2469.97,2020-5-27T15:05:48Z
2020-05-27T13:08:09Z,42.805,6.029,13.3019,4.59998,2469.984,2020-5-27T15:08:52Z
2020-05-27T13:11:12Z,42.805,6.029,13.3017,4.59999,2469.984,2020-5-27T15:11:55Z
2020-05-27T13:14:15Z,42.805,6.029,13.3063,4.59986,2469.984,2020-5-27T15:14:58Z
2020-05-27T13:17:18Z,42.805,6.029,13.3049,4.59996,2469.96,2020-5-27T15:18:01Z
2020-05-27T13:20:22Z,42.805,6.029,13.2992,4.60017,2469.947,2020-5-27T15:21:05Z
2020-05-27T13:23:25Z,42.805,6.029,13.3025,4.60013,2470.007,2020-5-27T15:24:08Z
2020-05-27T13:26:28Z,42.805,6.029,13.3006,4.60017,2469.947,2020-5-27T15:27:11Z
2020-05-27T13:29:31Z,42.805,6.029,13.3021,4.60027,2469.96,2020-5-27T15:30:14Z
2020-05-27T13:32:35Z,42.805,6.029,13.3007,4.60041,2469.97,2020-5-27T15:33:18Z
2020-05-27T13:35:38Z,42.805,6.029,13.3019,4.59997,2469.96,2020-5-27T15:36:21Z
2020-05-27T13:38:41Z,42.805,6.029,13.2997,4.60011,2469.984,2020-5-27T15:39:24Z
2020-05-27T13:41:44Z,42.805,6.029,13.2996,4.60027,2469.984,2020-5-27T15:42:27Z
2020-05-27T13:44:48Z,42.805,6.029,13.2991,4.60031,2469.947,2020-5-27T15:45:31Z
2020-05-27T13:47:51Z,42.805,6.029,13.2980,4.60049,2469.947,2020-5-27T15:48:34Z
2020-05-27T13:50:54Z,42.805,6.029,13.2990,4.60007,2469.97,2020-5-27T15:51:37Z
2020-05-27T13:53:58Z,42.805,6.029,13.3007,4.60014,2469.96,2020-5-27T15:54:41Z
2020-05-27T13:57:01Z,42.805,6.029,13.2981,4.60004,2469.96,2020-5-27T15:57:44Z
2020-05-27T14:00:04Z,42.805,6.029,13.3004,4.60011,2469.947,2020-5-27T16:00:47Z
2020-05-27T14:03:07Z,42.805,6.029,13.2992,4.60008,2469.947,2020-5-27T16:03:50Z
2020-05-27T14:06:11Z,42.805,6.029,13.3000,4.60014,2469.937,2020-5-27T16:06:53Z
2020-05-27T14:09:14Z,42.805,6.029,13.3020,4.60026,2469.923,2020-5-27T16:09:57Z
2020-05-27T14:12:17Z,42.805,6.029,13.3035,4.60013,2469.96,2020-5-27T16:13:00Z
2020-05-27T14:15:20Z,42.805,6.029,13.3029,4.60000,2469.97,2020-5-27T16:16:03Z
2020-05-27T14:18:24Z,42.805,6.029,13.2995,4.60044,2469.947,2020-5-27T16:19:07Z
2020-05-27T14:21:27Z,42.805,6.029,13.2988,4.60009,2469.937,2020-5-27T16:22:10Z
2020-05-27T14:24:30Z,42.805,6.029,13.2997,4.60000,2469.984,2020-5-27T16:25:13Z
2020-05-27T14:27:33Z,42.805,6.029,13.3009,4.60026,2469.937,2020-5-27T16:28:16Z
2020-05-27T14:30:37Z,42.805,6.029,13.3012,4.60002,2469.937,2020-5-27T16:31:19Z
2020-05-27T14:33:40Z,42.805,6.029,13.3014,4.60029,2469.937,2020-5-27T16:34:23Z
2020-05-27T14:36:43Z,42.805,6.029,13.3034,4.60009,2469.937,2020-5-27T16:37:26Z
2020-05-27T14:39:46Z,42.805,6.029,13.3034,4.60026,2469.937,2020-5-27T16:40:29Z
2020-05-27T14:42:50Z,42.805,6.029,13.3037,4.60003,2469.914,2020-5-27T16:43:33Z
2020-05-27T14:45:53Z,42.805,6.029,13.3049,4.60028,2469.937,2020-5-27T16:46:36Z
2020-05-27T14:48:57Z,42.805,6.029,13.3060,4.60009,2469.937,2020-5-27T16:49:39Z
2020-05-27T14:52:00Z,42.805,6.029,13.3026,4.59990,2469.947,2020-5-27T16:52:43Z
2020-05-27T14:55:03Z,42.805,6.029,13.3046,4.60009,2469.923,2020-5-27T16:55:46Z
2020-05-27T14:58:06Z,42.805,6.029,13.3055,4.59991,2469.937,2020-5-27T16:58:49Z
2020-05-27T15:01:09Z,42.805,6.029,13.3067,4.60008,2469.937,2020-5-27T17:01:52Z
2020-05-27T15:04:13Z,42.805,6.029,13.3067,4.60019,2469.96,2020-5-27T17:04:56Z
2020-05-27T15:07:16Z,42.805,6.029,13.3069,4.60015,2469.96,2020-5-27T17:07:59Z
2020-05-27T15:10:19Z,42.805,6.029,13.3073,4.59994,2469.923,2020-5-27T17:11:02Z
2020-05-27T15:13:22Z,42.805,6.029,13.3076,4.59995,2469.914,2020-5-27T17:14:05Z